Date,TemperatureHighF,TemperatureAvgF,TemperatureLowF,DewpointHighF,DewpointAvgF,DewpointLowF,HumidityHigh,HumidityAvg,HumidityLow,PressureMaxIn,PressureMinIn,WindSpeedMaxMPH,WindSpeedAvgMPH,GustSpeedMaxMPH,PrecipitationSumIn
2013-1-1,32.9,29.4,22.8,32.4,28.9,22.3,98,98,98,29.90,29.78,17,6,0,0.00
2013-1-2,26.1,19.6,13.1,22.3,17.8,12.6,98,93,76,30.08,29.90,11,3,0,0.00
2013-1-3,33.4,20.5,5.4,28.3,18.7,5.0,98,93,77,30.09,29.95,14,4,0,0.00
2013-1-4,31.5,27.6,25.3,31.0,27.1,24.8,98,98,98,30.07,29.97,24,9,0,0.00
2013-1-5,35.6,28.0,24.4,34.9,27.5,23.9,98,98,91,30.25,30.02,14,3,0,0.00
2013-1-6,41.0,34.8,28.6,40.5,34.3,28.1,98,98,98,30.03,29.86,13,2,0,0.00
2013-1-7,35.1,29.0,15.8,34.6,28.5,15.3,98,98,98,30.31,30.04,9,2,0,0.00
2013-1-8,45.7,24.8,9.5,38.7,22.6,9.1,98,93,62,30.27,30.17,6,0,0,0.00
2013-1-9,44.1,31.5,15.6,43.6,31.0,15.1,98,98,98,30.31,30.07,14,2,0,0.03
2013-1-10,43.5,35.9,26.4,40.5,35.0,25.9,98,97,77,30.48,30.29,17,1,0,0.00
2013-1-11,43.0,38.3,35.1,42.5,37.6,34.6,98,97,86,30.29,29.94,10,1,0,0.42
2013-1-12,57.9,41.8,34.0,57.3,41.3,33.5,98,98,98,30.02,29.93,0,0,0,0.00
2013-1-13,66.6,50.1,35.6,66.0,49.5,35.1,98,98,98,29.94,29.79,8,0,0,0.06
2013-1-14,56.7,40.8,32.2,56.1,39.9,31.7,98,97,79,30.23,29.81,16,3,0,0.12
2013-1-15,37.6,31.5,25.2,34.0,30.0,24.7,98,95,70,30.23,29.97,3,0,0,0.00
2013-1-16,36.3,33.1,30.2,35.8,32.6,29.7,98,98,98,29.96,29.74,14,2,0,0.37
2013-1-17,34.5,31.9,30.4,34.0,31.4,29.9,98,98,93,30.03,29.85,14,3,0,0.00
2013-1-18,30.7,22.6,16.3,30.2,19.2,10.9,98,88,62,30.33,29.96,12,6,0,0.00
2013-1-19,51.8,37.8,21.6,31.1,22.7,15.5,98,59,30,30.15,29.73,10,2,0,0.15
2013-1-20,46.2,36.7,20.7,36.7,27.5,16.4,84,70,47,29.97,29.65,16,6,0,0.00
2013-1-21,21.7,17.8,10.6,20.5,16.0,4.3,98,93,75,29.96,29.80,17,3,0,0.00
2013-1-22,10.2,7.0,4.6,8.7,3.9,-0.3,98,87,71,30.08,29.83,14,8,0,0.00
2013-1-23,13.5,8.5,3.2,8.2,4.6,0.3,98,84,62,30.11,29.91,14,4,0,0.00
2013-1-24,20.5,12.0,3.7,13.3,5.9,-1.9,98,78,44,30.38,29.89,14,3,0,0.00
2013-1-25,18.0,11.0,3.7,17.5,10.3,3.3,98,97,77,30.35,29.85,8,1,0,0.00
2013-1-26,27.9,21.2,17.6,26.8,20.4,17.1,98,97,86,30.28,29.90,11,5,0,0.00
2013-1-27,33.4,24.5,17.8,28.1,21.9,17.3,98,91,66,30.41,30.26,5,0,0,0.00
2013-1-28,50.0,30.8,27.0,49.5,30.3,26.5,98,98,98,30.25,29.91,8,1,0,0.03
2013-1-29,60.8,49.6,39.9,60.2,49.0,39.4,98,98,98,29.96,29.77,11,2,0,0.07
2013-1-30,66.0,49.1,36.0,65.4,48.5,35.5,98,98,98,29.76,29.12,11,2,0,1.01
2013-1-31,50.0,30.8,21.0,49.5,29.4,19.8,98,95,80,29.67,29.09,25,11,0,0.36